owner,sensor,date,latitude,longitude,vertical_datum,direction_of_sea_water_velocity,sea_water_speed,upward_sea_water_velocity,qcFlag 
TABS,ioos:station:wmo:42045:1,2010-01-01T00:00:00Z,26.2168,-96.4998,2.0,9.154582769,4.588442001,-99999.0,'11133222,11111222,99999999' 
TABS,ioos:station:wmo:42045:1,2010-01-01T00:30:00Z,26.2168,-96.4998,2.0,8.520462412,5.399592577,-99999.0,'11133222,11111222,99999999' 
TABS,ioos:station:wmo:42045:1,2010-01-01T01:00:00Z,26.2168,-96.4998,2.0,20.01892404,2.745906044,-99999.0,'11133222,11111222,99999999' 
TABS,ioos:station:wmo:42045:1,2010-01-01T01:30:00Z,26.2168,-96.4998,2.0,345.6116325,1.971851921,-99999.0,'11133222,11111222,99999999' 
TABS,ioos:station:wmo:42045:1,2010-01-01T02:00:00Z,26.2168,-96.4998,2.0,332.3962951,1.726528308,-99999.0,'11133222,11111222,99999999' 
TABS,ioos:station:wmo:42045:1,2010-01-01T02:30:00Z,26.2168,-96.4998,2.0,294.1183671,2.618587405,-99999.0,'11133222,11111222,99999999' 
TABS,ioos:station:wmo:42045:1,2010-01-01T03:00:00Z,26.2168,-96.4998,2.0,28.57474863,2.550686182,-99999.0,'11133222,11111222,99999999' 
TABS,ioos:station:wmo:42045:1,2010-01-01T03:30:00Z,26.2168,-96.4998,2.0,209.6158886,3.864932082,-99999.0,'11133222,11111222,99999999' 
TABS,ioos:station:wmo:42045:1,2010-01-01T04:00:00Z,26.2168,-96.4998,2.0,229.7779948,2.291920592,-99999.0,'11133222,11111222,99999999' 
TABS,ioos:station:wmo:42045:1,2010-01-01T04:30:00Z,26.2168,-96.4998,2.0,183.4396512,5.49990909,-99999.0,'11133222,11111222,99999999' 
TABS,ioos:station:wmo:42045:1,2010-01-01T05:00:00Z,26.2168,-96.4998,2.0,169.7905793,4.287889924,-99999.0,'11133222,11111222,99999999' 
TABS,ioos:station:wmo:42045:1,2010-01-01T05:30:00Z,26.2168,-96.4998,2.0,206.3601522,6.261030267,-99999.0,'11133222,11111222,99999999' 
TABS,ioos:station:wmo:42045:1,2010-01-01T06:00:00Z,26.2168,-96.4998,2.0,182.8730811,15.75981282,-99999.0,'11111222,11111222,99999999' 
TABS,ioos:station:wmo:42045:1,2010-01-01T06:30:00Z,26.2168,-96.4998,2.0,182.7515347,14.99729309,-99999.0,'11111222,11111222,99999999' 
TABS,ioos:station:wmo:42045:1,2010-01-01T07:00:00Z,26.2168,-96.4998,2.0,191.1449242,15.00294638,-99999.0,'11111222,11111222,99999999' 
TABS,ioos:station:wmo:42045:1,2010-01-01T07:30:00Z,26.2168,-96.4998,2.0,189.421512,9.285257132,-99999.0,'11133222,11111222,99999999' 
TABS,ioos:station:wmo:42045:1,2010-01-01T08:00:00Z,26.2168,-96.4998,2.0,194.3018185,18.29708447,-99999.0,'11111222,11111222,99999999' 
TABS,ioos:station:wmo:42045:1,2010-01-01T08:30:00Z,26.2168,-96.4998,2.0,182.4494464,20.58881492,-99999.0,'11111222,11111222,99999999' 
TABS,ioos:station:wmo:42045:1,2010-01-01T09:00:00Z,26.2168,-96.4998,2.0,184.8133292,16.207162,-99999.0,'11111222,11111222,99999999' 
TABS,ioos:station:wmo:42045:1,2010-01-01T09:30:00Z,26.2168,-96.4998,2.0,188.3326287,19.18251287,-99999.0,'11111222,11111222,99999999' 
TABS,ioos:station:wmo:42045:1,2010-01-01T10:00:00Z,26.2168,-96.4998,2.0,191.4268644,18.22118822,-99999.0,'11111222,11111222,99999999' 
TABS,ioos:station:wmo:42045:1,2010-01-01T10:30:00Z,26.2168,-96.4998,2.0,184.1936564,24.88663899,-99999.0,'11111222,11111222,99999999' 
TABS,ioos:station:wmo:42045:1,2010-01-01T11:00:00Z,26.2168,-96.4998,2.0,182.3596709,23.80018487,-99999.0,'11111222,11111222,99999999' 
TABS,ioos:station:wmo:42045:1,2010-01-01T11:30:00Z,26.2168,-96.4998,2.0,197.5440389,30.71891437,-99999.0,'11111222,11111222,99999999' 
TABS,ioos:station:wmo:42045:1,2010-01-01T12:00:00Z,26.2168,-96.4998,2.0,192.6737146,28.25853676,-99999.0,'11111222,11111222,99999999' 
TABS,ioos:station:wmo:42045:1,2010-01-01T12:30:00Z,26.2168,-96.4998,2.0,198.191858,25.36801924,-99999.0,'11111222,11111222,99999999' 
TABS,ioos:station:wmo:42045:1,2010-01-01T13:00:00Z,26.2168,-96.4998,2.0,196.5488325,22.29348335,-99999.0,'11111222,11111222,99999999' 
TABS,ioos:station:wmo:42045:1,2010-01-01T13:30:00Z,26.2168,-96.4998,2.0,207.5854296,28.87221848,-99999.0,'11111222,11111222,99999999' 
TABS,ioos:station:wmo:42045:1,2010-01-01T14:00:00Z,26.2168,-96.4998,2.0,195.6689962,31.06445235,-99999.0,'11111222,11111222,99999999' 
TABS,ioos:station:wmo:42045:1,2010-01-01T14:30:00Z,26.2168,-96.4998,2.0,193.8723322,23.77343896,-99999.0,'11111222,11111222,99999999' 
TABS,ioos:station:wmo:42045:1,2010-01-01T15:00:00Z,26.2168,-96.4998,2.0,210.382719,26.39498816,-99999.0,'11111222,11111222,99999999' 
TABS,ioos:station:wmo:42045:1,2010-01-01T15:30:00Z,26.2168,-96.4998,2.0,208.1523115,25.66649567,-99999.0,'11111222,11111222,99999999' 
TABS,ioos:station:wmo:42045:1,2010-01-01T16:00:00Z,26.2168,-96.4998,2.0,211.0293905,28.32301008,-99999.0,'11111222,11111222,99999999' 
TABS,ioos:station:wmo:42045:1,2010-01-01T16:30:00Z,26.2168,-96.4998,2.0,200.1430896,22.91139891,-99999.0,'11111222,11111222,99999999' 
TABS,ioos:station:wmo:42045:1,2010-01-01T17:00:00Z,26.2168,-96.4998,2.0,201.2086272,23.52328634,-99999.0,'11111222,11111222,99999999' 
TABS,ioos:station:wmo:42045:1,2010-01-01T17:30:00Z,26.2168,-96.4998,2.0,208.6191222,20.45975562,-99999.0,'11111222,11111222,99999999' 
TABS,ioos:station:wmo:42045:1,2010-01-01T18:00:00Z,26.2168,-96.4998,2.0,212.6099102,17.07115696,-99999.0,'11111222,11111222,99999999' 
TABS,ioos:station:wmo:42045:1,2010-01-01T18:30:00Z,26.2168,-96.4998,2.0,218.7231645,21.08503261,-99999.0,'11111222,11111222,99999999' 
TABS,ioos:station:wmo:42045:1,2010-01-01T19:00:00Z,26.2168,-96.4998,2.0,205.790987,16.226389,-99999.0,'11111222,11111222,99999999' 
TABS,ioos:station:wmo:42045:1,2010-01-01T19:30:00Z,26.2168,-96.4998,2.0,199.4350996,13.58405315,-99999.0,'11111222,11111222,99999999' 
TABS,ioos:station:wmo:42045:1,2010-01-01T20:00:00Z,26.2168,-96.4998,2.0,219.942181,13.39525662,-99999.0,'11111222,11111222,99999999' 
TABS,ioos:station:wmo:42045:1,2010-01-01T20:30:00Z,26.2168,-96.4998,2.0,226.2832163,11.99554084,-99999.0,'11111222,11111222,99999999' 
TABS,ioos:station:wmo:42045:1,2010-01-01T21:00:00Z,26.2168,-96.4998,2.0,224.4971038,12.89812389,-99999.0,'11111222,11111222,99999999' 
TABS,ioos:station:wmo:42045:1,2010-01-01T21:30:00Z,26.2168,-96.4998,2.0,216.5201729,10.16618906,-99999.0,'11111222,11111222,99999999' 
TABS,ioos:station:wmo:42045:1,2010-01-01T22:00:00Z,26.2168,-96.4998,2.0,215.7100448,11.9584489,-99999.0,'11111222,11111222,99999999' 
TABS,ioos:station:wmo:42045:1,2010-01-01T22:30:00Z,26.2168,-96.4998,2.0,214.449661,11.0838847,-99999.0,'11111222,11111222,99999999' 
TABS,ioos:station:wmo:42045:1,2010-01-01T23:00:00Z,26.2168,-96.4998,2.0,221.4821889,4.725304223,-99999.0,'11133222,11111222,99999999' 
TABS,ioos:station:wmo:42045:1,2010-01-01T23:30:00Z,26.2168,-96.4998,2.0,217.72157,8.204907068,-99999.0,'11133222,11111222,99999999' 
TABS,ioos:station:wmo:42045:1,2010-01-02T00:00:00Z,26.2168,-96.4998,2.0,256.334486,9.735584215,-99999.0,'11133222,11111222,99999999' 
TABS,ioos:station:wmo:42045:1,2010-01-02T00:30:00Z,26.2168,-96.4998,2.0,179.4618181,2.130093895,-99999.0,'11133222,11111222,99999999' 
TABS,ioos:station:wmo:42045:1,2010-01-02T01:00:00Z,26.2168,-96.4998,2.0,191.8835584,6.070098846,-99999.0,'11133222,11111222,99999999' 
TABS,ioos:station:wmo:42045:1,2010-01-02T01:30:00Z,26.2168,-96.4998,2.0,217.9053732,8.187337785,-99999.0,'11133222,11111222,99999999' 
TABS,ioos:station:wmo:42045:1,2010-01-02T02:00:00Z,26.2168,-96.4998,2.0,258.6686471,5.344165042,-99999.0,'11133222,11111222,99999999' 
TABS,ioos:station:wmo:42045:1,2010-01-02T02:30:00Z,26.2168,-96.4998,2.0,216.273096,7.876426855,-99999.0,'11133222,11111222,99999999' 
TABS,ioos:station:wmo:42045:1,2010-01-02T03:00:00Z,26.2168,-96.4998,2.0,294.3477801,1.964739168,-99999.0,'11133222,11111222,99999999' 
TABS,ioos:station:wmo:42045:1,2010-01-02T03:30:00Z,26.2168,-96.4998,2.0,249.3526365,8.110961719,-99999.0,'11133222,11111222,99999999' 
TABS,ioos:station:wmo:42045:1,2010-01-02T04:00:00Z,26.2168,-96.4998,2.0,245.3208906,7.47251631,-99999.0,'11133222,11111222,99999999' 
TABS,ioos:station:wmo:42045:1,2010-01-02T04:30:00Z,26.2168,-96.4998,2.0,222.9413188,6.693549133,-99999.0,'11133222,11111222,99999999' 
TABS,ioos:station:wmo:42045:1,2010-01-02T05:00:00Z,26.2168,-96.4998,2.0,294.359285,2.788207309,-99999.0,'11133222,11111222,99999999' 
TABS,ioos:station:wmo:42045:1,2010-01-02T05:30:00Z,26.2168,-96.4998,2.0,161.3652482,0.907579198,-99999.0,'11133222,11111222,99999999' 
TABS,ioos:station:wmo:42045:1,2010-01-02T06:00:00Z,26.2168,-96.4998,2.0,206.2332742,4.637682611,-99999.0,'11133222,11111222,99999999' 
TABS,ioos:station:wmo:42045:1,2010-01-02T06:30:00Z,26.2168,-96.4998,2.0,209.5186955,2.516684327,-99999.0,'11133222,11111222,99999999' 
TABS,ioos:station:wmo:42045:1,2010-01-02T07:00:00Z,26.2168,-96.4998,2.0,247.2323695,4.186167699,-99999.0,'11133222,11111222,99999999' 
TABS,ioos:station:wmo:42045:1,2010-01-02T07:30:00Z,26.2168,-96.4998,2.0,225.970704,2.503517525,-99999.0,'11133222,11111222,99999999' 
TABS,ioos:station:wmo:42045:1,2010-01-02T08:00:00Z,26.2168,-96.4998,2.0,231.6938978,3.032952357,-99999.0,'11133222,11111222,99999999' 
TABS,ioos:station:wmo:42045:1,2010-01-02T08:30:00Z,26.2168,-96.4998,2.0,174.8180348,4.096742608,-99999.0,'11133222,11111222,99999999' 
TABS,ioos:station:wmo:42045:1,2010-01-02T09:00:00Z,26.2168,-96.4998,2.0,169.054819,4.002811512,-99999.0,'11133222,11111222,99999999' 
TABS,ioos:station:wmo:42045:1,2010-01-02T09:30:00Z,26.2168,-96.4998,2.0,230.6907692,2.067873304,-99999.0,'11133222,11111222,99999999' 
TABS,ioos:station:wmo:42045:1,2010-01-02T10:00:00Z,26.2168,-96.4998,2.0,176.6484663,2.223803049,-99999.0,'11133222,11111222,99999999' 
TABS,ioos:station:wmo:42045:1,2010-01-02T10:30:00Z,26.2168,-96.4998,2.0,244.9033873,0.87235314,-99999.0,'11133222,11111222,99999999' 
TABS,ioos:station:wmo:42045:1,2010-01-02T11:00:00Z,26.2168,-96.4998,2.0,218.5876483,3.735679322,-99999.0,'11133222,11111222,99999999' 
TABS,ioos:station:wmo:42045:1,2010-01-02T11:30:00Z,26.2168,-96.4998,2.0,176.6118415,6.260942421,-99999.0,'11133222,11111222,99999999' 
TABS,ioos:station:wmo:42045:1,2010-01-02T12:00:00Z,26.2168,-96.4998,2.0,180.6270891,2.740164229,-99999.0,'11133222,11111222,99999999' 
TABS,ioos:station:wmo:42045:1,2010-01-02T12:30:00Z,26.2168,-96.4998,2.0,186.442868,6.148837288,-99999.0,'11133222,11111222,99999999' 
TABS,ioos:station:wmo:42045:1,2010-01-02T13:00:00Z,26.2168,-96.4998,2.0,155.8412833,8.307610968,-99999.0,'11133222,11111222,99999999' 
TABS,ioos:station:wmo:42045:1,2010-01-02T13:30:00Z,26.2168,-96.4998,2.0,183.0309438,4.916879091,-99999.0,'11133222,11111222,99999999' 
TABS,ioos:station:wmo:42045:1,2010-01-02T14:00:00Z,26.2168,-96.4998,2.0,173.545818,6.672285965,-99999.0,'11133222,11111222,99999999' 
TABS,ioos:station:wmo:42045:1,2010-01-02T14:30:00Z,26.2168,-96.4998,2.0,200.3471099,7.391197467,-99999.0,'11133222,11111222,99999999' 
TABS,ioos:station:wmo:42045:1,2010-01-02T15:00:00Z,26.2168,-96.4998,2.0,228.6135566,4.03853934,-99999.0,'11133222,11111222,99999999' 
TABS,ioos:station:wmo:42045:1,2010-01-02T15:30:00Z,26.2168,-96.4998,2.0,220.693784,6.027420676,-99999.0,'11133222,11111222,99999999' 
TABS,ioos:station:wmo:42045:1,2010-01-02T16:00:00Z,26.2168,-96.4998,2.0,193.3782985,3.803209171,-99999.0,'11133222,11111222,99999999' 
TABS,ioos:station:wmo:42045:1,2010-01-02T16:30:00Z,26.2168,-96.4998,2.0,226.945285,6.664788069,-99999.0,'11133222,11111222,99999999' 
TABS,ioos:station:wmo:42045:1,2010-01-02T17:00:00Z,26.2168,-96.4998,2.0,229.584776,4.334293483,-99999.0,'11133222,11111222,99999999' 
TABS,ioos:station:wmo:42045:1,2010-01-02T17:30:00Z,26.2168,-96.4998,2.0,205.5259519,6.660105104,-99999.0,'11133222,11111222,99999999' 
TABS,ioos:station:wmo:42045:1,2010-01-02T18:00:00Z,26.2168,-96.4998,2.0,213.047128,8.160153185,-99999.0,'11133222,11111222,99999999' 
TABS,ioos:station:wmo:42045:1,2010-01-02T18:30:00Z,26.2168,-96.4998,2.0,243.0436901,9.177036559,-99999.0,'11133222,11111222,99999999' 
TABS,ioos:station:wmo:42045:1,2010-01-02T19:00:00Z,26.2168,-96.4998,2.0,265.2908762,7.796313231,-99999.0,'11133222,11111222,99999999' 
TABS,ioos:station:wmo:42045:1,2010-01-02T19:30:00Z,26.2168,-96.4998,2.0,268.5953179,11.83355399,-99999.0,'11111222,11111222,99999999' 
TABS,ioos:station:wmo:42045:1,2010-01-02T20:00:00Z,26.2168,-96.4998,2.0,271.1930205,13.45291418,-99999.0,'11111222,11111222,99999999' 
TABS,ioos:station:wmo:42045:1,2010-01-02T20:30:00Z,26.2168,-96.4998,2.0,241.7582968,7.185325323,-99999.0,'11133222,11111222,99999999' 
TABS,ioos:station:wmo:42045:1,2010-01-02T21:00:00Z,26.2168,-96.4998,2.0,256.9035356,9.312196304,-99999.0,'11133222,11111222,99999999' 
TABS,ioos:station:wmo:42045:1,2010-01-02T21:30:00Z,26.2168,-96.4998,2.0,246.2567387,6.358144383,-99999.0,'11133222,11111222,99999999' 
TABS,ioos:station:wmo:42045:1,2010-01-02T22:00:00Z,26.2168,-96.4998,2.0,273.0681419,8.221782045,-99999.0,'11133222,11111222,99999999' 
TABS,ioos:station:wmo:42045:1,2010-01-02T22:30:00Z,26.2168,-96.4998,2.0,275.5997472,5.12445119,-99999.0,'11133222,11111222,99999999' 
TABS,ioos:station:wmo:42045:1,2010-01-02T23:00:00Z,26.2168,-96.4998,2.0,280.4729101,11.00329042,-99999.0,'11111222,11111222,99999999' 
TABS,ioos:station:wmo:42045:1,2010-01-02T23:30:00Z,26.2168,-96.4998,2.0,277.050462,10.42884941,-99999.0,'11111222,11111222,99999999' 
TABS,ioos:station:wmo:42045:1,2010-01-03T00:00:00Z,26.2168,-96.4998,2.0,296.4652429,5.116131351,-99999.0,'11133222,11111222,99999999' 
TABS,ioos:station:wmo:42045:1,2010-01-03T00:30:00Z,26.2168,-96.4998,2.0,291.3504939,5.658312469,-99999.0,'11133222,11111222,99999999' 
TABS,ioos:station:wmo:42045:1,2010-01-03T01:00:00Z,26.2168,-96.4998,2.0,283.5035564,5.995740154,-99999.0,'11133222,11111222,99999999' 
TABS,ioos:station:wmo:42045:1,2010-01-03T01:30:00Z,26.2168,-96.4998,2.0,309.542775,3.345638952,-99999.0,'11133222,11111222,99999999' 
TABS,ioos:station:wmo:42045:1,2010-01-03T02:00:00Z,26.2168,-96.4998,2.0,250.5102713,2.577692767,-99999.0,'11133222,11111222,99999999' 
TABS,ioos:station:wmo:42045:1,2010-01-03T02:30:00Z,26.2168,-96.4998,2.0,259.7862345,8.40315417,-99999.0,'11133222,11111222,99999999' 
TABS,ioos:station:wmo:42045:1,2010-01-03T03:00:00Z,26.2168,-96.4998,2.0,312.1581845,0.998248466,-99999.0,'11133222,11111222,99999999' 
TABS,ioos:station:wmo:42045:1,2010-01-03T03:30:00Z,26.2168,-96.4998,2.0,351.2687636,2.964354905,-99999.0,'11133222,11111222,99999999' 
TABS,ioos:station:wmo:42045:1,2010-01-03T04:00:00Z,26.2168,-96.4998,2.0,106.2720587,1.927200042,-99999.0,'11133222,11111222,99999999' 
TABS,ioos:station:wmo:42045:1,2010-01-03T04:30:00Z,26.2168,-96.4998,2.0,216.6385714,2.480020161,-99999.0,'11133222,11111222,99999999' 
TABS,ioos:station:wmo:42045:1,2010-01-03T05:00:00Z,26.2168,-96.4998,2.0,39.03563208,1.905360858,-99999.0,'11133222,11111222,99999999' 
TABS,ioos:station:wmo:42045:1,2010-01-03T05:30:00Z,26.2168,-96.4998,2.0,231.2003882,3.207818573,-99999.0,'11133222,11111222,99999999' 
TABS,ioos:station:wmo:42045:1,2010-01-03T06:00:00Z,26.2168,-96.4998,2.0,0.492006497,2.330085835,-99999.0,'11133222,11111222,99999999' 
TABS,ioos:station:wmo:42045:1,2010-01-03T06:30:00Z,26.2168,-96.4998,2.0,88.11022012,3.942144087,-99999.0,'11133222,11111222,99999999' 
TABS,ioos:station:wmo:42045:1,2010-01-03T07:00:00Z,26.2168,-96.4998,2.0,74.95364335,2.889048286,-99999.0,'11133222,11111222,99999999' 
TABS,ioos:station:wmo:42045:1,2010-01-03T07:30:00Z,26.2168,-96.4998,2.0,328.5812063,2.589710409,-99999.0,'11133222,11111222,99999999' 
TABS,ioos:station:wmo:42045:1,2010-01-03T08:00:00Z,26.2168,-96.4998,2.0,353.7411888,1.559294712,-99999.0,'11133222,11111222,99999999' 
TABS,ioos:station:wmo:42045:1,2010-01-03T08:30:00Z,26.2168,-96.4998,2.0,176.2748611,3.848129416,-99999.0,'11133222,11111222,99999999' 
TABS,ioos:station:wmo:42045:1,2010-01-03T09:00:00Z,26.2168,-96.4998,2.0,340.0677205,0.967987603,-99999.0,'11133222,11111222,99999999' 
TABS,ioos:station:wmo:42045:1,2010-01-03T09:30:00Z,26.2168,-96.4998,2.0,228.2756585,2.103544628,-99999.0,'11133222,11111222,99999999' 
TABS,ioos:station:wmo:42045:1,2010-01-03T10:00:00Z,26.2168,-96.4998,2.0,276.4191926,2.415139748,-99999.0,'11133222,11111222,99999999' 
TABS,ioos:station:wmo:42045:1,2010-01-03T10:30:00Z,26.2168,-96.4998,2.0,161.7604313,4.632763754,-99999.0,'11133222,11111222,99999999' 
TABS,ioos:station:wmo:42045:1,2010-01-03T11:00:00Z,26.2168,-96.4998,2.0,130.7410586,5.332166539,-99999.0,'11133222,11111222,99999999' 
TABS,ioos:station:wmo:42045:1,2010-01-03T11:30:00Z,26.2168,-96.4998,2.0,170.5598793,4.206970406,-99999.0,'11133222,11111222,99999999' 
TABS,ioos:station:wmo:42045:1,2010-01-03T12:00:00Z,26.2168,-96.4998,2.0,236.3788716,2.293686988,-99999.0,'11133222,11111222,99999999' 
TABS,ioos:station:wmo:42045:1,2010-01-03T12:30:00Z,26.2168,-96.4998,2.0,156.7344752,6.759659755,-99999.0,'11133222,11111222,99999999' 
TABS,ioos:station:wmo:42045:1,2010-01-03T13:00:00Z,26.2168,-96.4998,2.0,152.1674045,5.054750241,-99999.0,'11133222,11111222,99999999' 
TABS,ioos:station:wmo:42045:1,2010-01-03T13:30:00Z,26.2168,-96.4998,2.0,134.5672498,6.555066743,-99999.0,'11133222,11111222,99999999' 
TABS,ioos:station:wmo:42045:1,2010-01-03T14:00:00Z,26.2168,-96.4998,2.0,155.0070872,7.171534006,-99999.0,'11133222,11111222,99999999' 
TABS,ioos:station:wmo:42045:1,2010-01-03T14:30:00Z,26.2168,-96.4998,2.0,140.2562974,7.100929517,-99999.0,'11133222,11111222,99999999' 
TABS,ioos:station:wmo:42045:1,2010-01-03T15:00:00Z,26.2168,-96.4998,2.0,158.6419411,9.116057262,-99999.0,'11133222,11111222,99999999' 
TABS,ioos:station:wmo:42045:1,2010-01-03T15:30:00Z,26.2168,-96.4998,2.0,187.8661969,10.44832044,-99999.0,'11111222,11111222,99999999' 
TABS,ioos:station:wmo:42045:1,2010-01-03T16:00:00Z,26.2168,-96.4998,2.0,203.3969647,9.468563777,-99999.0,'11133222,11111222,99999999' 
TABS,ioos:station:wmo:42045:1,2010-01-03T16:30:00Z,26.2168,-96.4998,2.0,193.3289552,6.289427637,-99999.0,'11133222,11111222,99999999' 
TABS,ioos:station:wmo:42045:1,2010-01-03T17:00:00Z,26.2168,-96.4998,2.0,219.1405978,10.04388869,-99999.0,'11111222,11111222,99999999' 
TABS,ioos:station:wmo:42045:1,2010-01-03T17:30:00Z,26.2168,-96.4998,2.0,203.1494387,12.31129563,-99999.0,'11111222,11111222,99999999' 
TABS,ioos:station:wmo:42045:1,2010-01-03T18:00:00Z,26.2168,-96.4998,2.0,231.4209434,12.13939867,-99999.0,'11111222,11111222,99999999' 
TABS,ioos:station:wmo:42045:1,2010-01-03T18:30:00Z,26.2168,-96.4998,2.0,233.2213673,12.51001599,-99999.0,'11111222,11111222,99999999' 
TABS,ioos:station:wmo:42045:1,2010-01-03T19:00:00Z,26.2168,-96.4998,2.0,228.0697423,14.1270556,-99999.0,'11111222,11111222,99999999' 
TABS,ioos:station:wmo:42045:1,2010-01-03T19:30:00Z,26.2168,-96.4998,2.0,232.8562822,16.76019093,-99999.0,'11111222,11111222,99999999' 
TABS,ioos:station:wmo:42045:1,2010-01-03T20:00:00Z,26.2168,-96.4998,2.0,230.1852132,16.50779513,-99999.0,'11111222,11111222,99999999' 
TABS,ioos:station:wmo:42045:1,2010-01-03T20:30:00Z,26.2168,-96.4998,2.0,232.9704713,20.14207785,-99999.0,'11111222,11111222,99999999' 
TABS,ioos:station:wmo:42045:1,2010-01-03T21:00:00Z,26.2168,-96.4998,2.0,234.7174434,17.46870631,-99999.0,'11111222,11111222,99999999' 
TABS,ioos:station:wmo:42045:1,2010-01-03T21:30:00Z,26.2168,-96.4998,2.0,240.0602158,18.99478876,-99999.0,'11111222,11111222,99999999' 
TABS,ioos:station:wmo:42045:1,2010-01-03T22:00:00Z,26.2168,-96.4998,2.0,239.3772993,16.11772316,-99999.0,'11111222,11111222,99999999' 
TABS,ioos:station:wmo:42045:1,2010-01-03T22:30:00Z,26.2168,-96.4998,2.0,242.8398469,15.51020309,-99999.0,'11111222,11111222,99999999' 
TABS,ioos:station:wmo:42045:1,2010-01-03T23:00:00Z,26.2168,-96.4998,2.0,242.128345,14.90950368,-99999.0,'11111222,11111222,99999999' 
TABS,ioos:station:wmo:42045:1,2010-01-03T23:30:00Z,26.2168,-96.4998,2.0,231.1692344,17.83043746,-99999.0,'11111222,11111222,99999999' 
TABS,ioos:station:wmo:42045:1,2010-01-04T00:00:00Z,26.2168,-96.4998,2.0,221.0123355,15.86344855,-99999.0,'11111222,11111222,99999999' 
TABS,ioos:station:wmo:42045:1,2010-01-04T00:30:00Z,26.2168,-96.4998,2.0,231.0020038,12.71276524,-99999.0,'11111222,11111222,99999999' 
TABS,ioos:station:wmo:42045:1,2010-01-04T01:00:00Z,26.2168,-96.4998,2.0,224.8526973,13.78155652,-99999.0,'11111222,11111222,99999999' 
TABS,ioos:station:wmo:42045:1,2010-01-04T01:30:00Z,26.2168,-96.4998,2.0,234.2443283,12.85243168,-99999.0,'11111222,11111222,99999999' 
TABS,ioos:station:wmo:42045:1,2010-01-04T02:00:00Z,26.2168,-96.4998,2.0,231.3049419,12.8124978,-99999.0,'11111222,11111222,99999999' 
TABS,ioos:station:wmo:42045:1,2010-01-04T02:30:00Z,26.2168,-96.4998,2.0,221.3978129,18.79667258,-99999.0,'11111222,11111222,99999999' 
TABS,ioos:station:wmo:42045:1,2010-01-04T03:00:00Z,26.2168,-96.4998,2.0,224.0633508,18.60646393,-99999.0,'11111222,11111222,99999999' 
TABS,ioos:station:wmo:42045:1,2010-01-04T03:30:00Z,26.2168,-96.4998,2.0,222.7183694,27.88918249,-99999.0,'11111222,11111222,99999999' 
TABS,ioos:station:wmo:42045:1,2010-01-04T04:00:00Z,26.2168,-96.4998,2.0,223.3512286,25.31782969,-99999.0,'11111222,11111222,99999999' 
TABS,ioos:station:wmo:42045:1,2010-01-04T04:30:00Z,26.2168,-96.4998,2.0,211.1822471,21.10991473,-99999.0,'11111222,11111222,99999999' 
TABS,ioos:station:wmo:42045:1,2010-01-04T05:00:00Z,26.2168,-96.4998,2.0,226.0380542,22.63113342,-99999.0,'11111222,11111222,99999999' 
TABS,ioos:station:wmo:42045:1,2010-01-04T05:30:00Z,26.2168,-96.4998,2.0,225.3213858,25.18754057,-99999.0,'11111222,11111222,99999999' 
TABS,ioos:station:wmo:42045:1,2010-01-04T06:00:00Z,26.2168,-96.4998,2.0,226.7134271,24.5900305,-99999.0,'11111222,11111222,99999999' 
TABS,ioos:station:wmo:42045:1,2010-01-04T06:30:00Z,26.2168,-96.4998,2.0,214.4170721,26.22001716,-99999.0,'11111222,11111222,99999999' 
TABS,ioos:station:wmo:42045:1,2010-01-04T07:00:00Z,26.2168,-96.4998,2.0,226.4684816,25.10346789,-99999.0,'11111222,11111222,99999999' 
TABS,ioos:station:wmo:42045:1,2010-01-04T07:30:00Z,26.2168,-96.4998,2.0,233.1494874,23.24400138,-99999.0,'11111222,11111222,99999999' 
TABS,ioos:station:wmo:42045:1,2010-01-04T08:00:00Z,26.2168,-96.4998,2.0,230.4467688,25.55000783,-99999.0,'11111222,11111222,99999999' 
TABS,ioos:station:wmo:42045:1,2010-01-04T08:30:00Z,26.2168,-96.4998,2.0,236.4571104,24.77576639,-99999.0,'11111222,11111222,99999999' 
TABS,ioos:station:wmo:42045:1,2010-01-04T09:00:00Z,26.2168,-96.4998,2.0,221.6153558,23.95613074,-99999.0,'11111222,11111222,99999999' 
TABS,ioos:station:wmo:42045:1,2010-01-04T09:30:00Z,26.2168,-96.4998,2.0,223.8256966,27.26468962,-99999.0,'11111222,11111222,99999999' 
TABS,ioos:station:wmo:42045:1,2010-01-04T10:00:00Z,26.2168,-96.4998,2.0,217.8030085,26.64153524,-99999.0,'11111222,11111222,99999999' 
TABS,ioos:station:wmo:42045:1,2010-01-04T10:30:00Z,26.2168,-96.4998,2.0,216.4521537,27.45072859,-99999.0,'11111222,11111222,99999999' 
TABS,ioos:station:wmo:42045:1,2010-01-04T11:00:00Z,26.2168,-96.4998,2.0,214.3812707,20.4532858,-99999.0,'11111222,11111222,99999999' 
TABS,ioos:station:wmo:42045:1,2010-01-04T11:30:00Z,26.2168,-96.4998,2.0,220.7615681,25.92979946,-99999.0,'11111222,11111222,99999999' 
TABS,ioos:station:wmo:42045:1,2010-01-04T12:00:00Z,26.2168,-96.4998,2.0,223.621834,21.46689777,-99999.0,'11111222,11111222,99999999' 
TABS,ioos:station:wmo:42045:1,2010-01-04T12:30:00Z,26.2168,-96.4998,2.0,217.3660541,26.08297912,-99999.0,'11111222,11111222,99999999' 
TABS,ioos:station:wmo:42045:1,2010-01-04T13:00:00Z,26.2168,-96.4998,2.0,209.0033405,28.37904156,-99999.0,'11111222,11111222,99999999' 
TABS,ioos:station:wmo:42045:1,2010-01-04T13:30:00Z,26.2168,-96.4998,2.0,215.0070277,21.47534633,-99999.0,'11111222,11111222,99999999' 
TABS,ioos:station:wmo:42045:1,2010-01-04T14:00:00Z,26.2168,-96.4998,2.0,214.295913,23.07127218,-99999.0,'11111222,11111222,99999999' 
TABS,ioos:station:wmo:42045:1,2010-01-04T14:30:00Z,26.2168,-96.4998,2.0,199.1551531,27.91563182,-99999.0,'11111222,11111222,99999999' 
TABS,ioos:station:wmo:42045:1,2010-01-04T15:00:00Z,26.2168,-96.4998,2.0,206.0146966,27.01741846,-99999.0,'11111222,11111222,99999999' 
TABS,ioos:station:wmo:42045:1,2010-01-04T15:30:00Z,26.2168,-96.4998,2.0,207.7597467,18.01320904,-99999.0,'11111222,11111222,99999999' 
TABS,ioos:station:wmo:42045:1,2010-01-04T16:00:00Z,26.2168,-96.4998,2.0,223.9902646,19.66769178,-99999.0,'11111222,11111222,99999999' 